Powrót do katalogu

STARLINK-4711

AktywnyŁącznośćVLEO
NORAD 53701·PAYLOAD·🇺🇸 United States

Wystrzelony Sep 5, 2022 z Cape Canaveral Space Force Station

Loading…

Następne Przeloty (najbliższe 24 godziny)

TLE

ŚwieżeSource: CelesTrak SupGP

Epoka: Sep 15, 2026, 01:59 UTC

1 53701C 22107B   26258.08312500  .00748970  00000+0  21860-1 0  2580
2 53701  53.1590 110.7461 0001175  82.0224 216.9070 15.34400376    12

Śledź STARLINK-4711 w czasie rzeczywistym z AllMySat

Download on the App Store